Time,TemperatureF,DewpointF,PressureIn,WindDirection,WindDirectionDegrees,WindSpeedMPH,WindSpeedGustMPH,Humidity,HourlyPrecipIn,Conditions,Clouds,dailyrainin,SoftwareType,DateUTC
2013-12-27 00:01:00,25.3,12.2,30.28,NW,326,0.0,9.0,57,0.00,,---,0.00,VWS V14.01,2013-12-27 07:01:00,
2013-12-27 00:11:00,23.2,10.6,30.30,NW,325,0.0,7.0,58,0.00,,---,0.00,VWS V14.01,2013-12-27 07:11:00,
2013-12-27 00:21:00,22.8,11.0,30.30,NW,325,4.0,7.0,60,0.00,,---,0.00,VWS V14.01,2013-12-27 07:21:00,
2013-12-27 00:31:00,24.2,12.3,30.28,NNW,327,0.0,11.0,60,0.00,,---,0.00,VWS V14.01,2013-12-27 07:31:00,
2013-12-27 00:41:00,23.8,11.6,30.28,NNW,328,0.0,0.0,59,0.00,,---,0.00,VWS V14.01,2013-12-27 07:41:00,
2013-12-27 00:51:00,24.2,11.9,30.27,NNW,331,0.0,12.0,59,0.00,,---,0.00,VWS V14.01,2013-12-27 07:51:00,
2013-12-27 01:01:00,20.7,9.4,30.31,NNW,331,0.0,0.0,61,0.00,,---,0.00,VWS V14.01,2013-12-27 08:01:00,
2013-12-27 01:11:00,19.7,9.2,30.31,NNW,331,0.0,7.0,63,0.00,,---,0.00,VWS V14.01,2013-12-27 08:11:00,
2013-12-27 01:21:00,20.1,9.2,30.31,NNW,331,0.0,0.0,62,0.00,,---,0.00,VWS V14.01,2013-12-27 08:21:00,
2013-12-27 01:31:00,20.3,10.1,30.31,NNW,331,0.0,0.0,64,0.00,,---,0.00,VWS V14.01,2013-12-27 08:31:00,
2013-12-27 01:41:00,20.0,10.1,30.31,NNW,331,0.0,0.0,65,0.00,,---,0.00,VWS V14.01,2013-12-27 08:41:00,
2013-12-27 01:51:00,20.6,9.7,30.31,NNW,331,0.0,0.0,62,0.00,,---,0.00,VWS V14.01,2013-12-27 08:51:00,
2013-12-27 02:01:00,19.1,8.9,30.33,NNW,331,0.0,0.0,64,0.00,,---,0.00,VWS V14.01,2013-12-27 09:01:00,
2013-12-27 02:11:00,18.6,9.1,30.36,NNW,331,0.0,0.0,66,0.00,,---,0.00,VWS V14.01,2013-12-27 09:11:00,
2013-12-27 02:21:00,18.9,9.4,30.34,NNW,331,0.0,7.0,66,0.00,,---,0.00,VWS V14.01,2013-12-27 09:21:00,
2013-12-27 02:31:00,20.3,9.7,30.34,NNW,331,0.0,7.0,63,0.00,,---,0.00,VWS V14.01,2013-12-27 09:31:00,
2013-12-27 02:41:00,19.9,9.7,30.34,NNW,331,0.0,0.0,64,0.00,,---,0.00,VWS V14.01,2013-12-27 09:41:00,
2013-12-27 02:51:00,20.0,9.4,30.34,NNW,331,6.0,7.0,63,0.00,,---,0.00,VWS V14.01,2013-12-27 09:51:00,
2013-12-27 03:01:00,20.6,10.0,30.34,NNW,330,7.0,7.0,63,0.00,,---,0.00,VWS V14.01,2013-12-27 10:01:00,
2013-12-27 03:11:00,23.3,10.3,30.30,NW,324,6.0,12.0,57,0.00,,---,0.00,VWS V14.01,2013-12-27 10:11:00,
2013-12-27 03:21:00,21.4,8.9,30.32,NW,323,7.0,7.0,58,0.00,,---,0.00,VWS V14.01,2013-12-27 10:21:00,
2013-12-27 03:31:00,21.7,10.3,30.32,NW,323,0.0,7.0,61,0.00,,---,0.00,VWS V14.01,2013-12-27 10:31:00,
2013-12-27 03:41:00,23.5,11.7,30.31,NW,323,0.0,0.0,60,0.00,,---,0.00,VWS V14.01,2013-12-27 10:41:00,
2013-12-27 03:51:00,23.2,12.1,30.31,NW,321,6.0,11.0,62,0.00,,---,0.00,VWS V14.01,2013-12-27 10:51:00,
2013-12-27 04:01:00,21.8,9.7,30.31,NW,317,0.0,12.0,59,0.00,,---,0.00,VWS V14.01,2013-12-27 11:01:00,
2013-12-27 04:11:00,20.6,9.3,30.35,NW,315,0.0,0.0,61,0.00,,---,0.00,VWS V14.01,2013-12-27 11:11:00,
2013-12-27 04:21:00,21.1,9.4,30.35,NW,315,0.0,0.0,60,0.00,,---,0.00,VWS V14.01,2013-12-27 11:21:00,
2013-12-27 04:31:00,22.7,10.5,30.33,NW,314,0.0,0.0,59,0.00,,---,0.00,VWS V14.01,2013-12-27 11:31:00,
2013-12-27 04:41:00,22.7,10.2,30.33,NW,314,0.0,0.0,58,0.00,,---,0.00,VWS V14.01,2013-12-27 11:41:00,
2013-12-27 04:51:00,20.8,8.8,30.34,NW,314,0.0,7.0,59,0.00,,---,0.00,VWS V14.01,2013-12-27 11:51:00,
2013-12-27 05:01:00,20.4,8.7,30.36,NW,314,0.0,0.0,60,0.00,,---,0.00,VWS V14.01,2013-12-27 12:01:00,
2013-12-27 05:11:00,19.3,8.1,30.40,NW,314,2.0,2.0,61,0.00,,---,0.00,VWS V14.01,2013-12-27 12:11:00,
2013-12-27 05:21:00,19.1,8.6,30.40,NW,314,0.0,7.0,63,0.00,,---,0.00,VWS V14.01,2013-12-27 12:21:00,
2013-12-27 05:31:00,20.4,9.8,30.38,NW,314,0.0,0.0,63,0.00,,---,0.00,VWS V14.01,2013-12-27 12:31:00,
2013-12-27 05:41:00,17.5,7.4,30.40,WNW,301,8.0,10.0,64,0.00,,---,0.00,VWS V14.01,2013-12-27 12:41:00,
2013-12-27 05:51:00,17.8,8.4,30.40,WNW,287,6.0,10.0,66,0.00,,---,0.00,VWS V14.01,2013-12-27 12:51:00,
2013-12-27 06:01:00,19.7,9.5,30.39,WNW,287,0.0,6.0,64,0.00,,---,0.00,VWS V14.01,2013-12-27 13:01:00,
2013-12-27 06:11:00,19.5,9.3,30.42,WNW,287,0.0,0.0,64,0.00,,---,0.00,VWS V14.01,2013-12-27 13:11:00,
2013-12-27 06:21:00,19.8,9.3,30.41,WNW,286,0.0,0.0,63,0.00,,---,0.00,VWS V14.01,2013-12-27 13:21:00,
2013-12-27 06:31:00,20.1,9.9,30.41,WNW,286,0.0,0.0,64,0.00,,---,0.00,VWS V14.01,2013-12-27 13:31:00,
2013-12-27 06:41:00,21.1,10.1,30.42,WNW,287,0.0,0.0,62,0.00,,---,0.00,VWS V14.01,2013-12-27 13:41:00,
2013-12-27 06:51:00,20.1,9.2,30.41,WNW,287,0.0,0.0,62,0.00,,---,0.00,VWS V14.01,2013-12-27 13:51:00,
2013-12-27 07:01:00,20.1,9.2,30.41,WNW,287,0.0,0.0,62,0.00,,---,0.00,VWS V14.01,2013-12-27 14:01:00,
2013-12-27 07:11:00,18.6,8.5,30.45,WNW,286,0.0,0.0,64,0.00,,---,0.00,VWS V14.01,2013-12-27 14:11:00,
2013-12-27 07:21:00,18.6,8.8,30.45,WNW,286,0.0,0.0,65,0.00,,---,0.00,VWS V14.01,2013-12-27 14:21:00,
2013-12-27 07:31:00,19.3,9.5,30.45,WNW,286,0.0,0.0,65,0.00,,---,0.00,VWS V14.01,2013-12-27 14:31:00,
2013-12-27 07:41:00,20.3,9.7,30.43,WNW,286,0.0,0.0,63,0.00,,---,0.00,VWS V14.01,2013-12-27 14:41:00,
2013-12-27 07:51:00,20.2,9.6,30.42,WNW,286,0.0,0.0,63,0.00,,---,0.00,VWS V14.01,2013-12-27 14:51:00,
2013-12-27 08:01:00,21.1,10.5,30.43,WNW,286,0.0,0.0,63,0.00,,---,0.00,VWS V14.01,2013-12-27 15:01:00,
2013-12-27 08:11:00,22.4,11.4,30.41,WNW,286,0.0,0.0,62,0.00,,---,0.00,VWS V14.01,2013-12-27 15:11:00,
2013-12-27 08:21:00,24.0,12.1,30.39,WNW,286,0.0,0.0,60,0.00,,---,0.00,VWS V14.01,2013-12-27 15:21:00,
2013-12-27 08:31:00,25.7,13.0,30.37,WNW,286,0.0,0.0,58,0.00,,---,0.00,VWS V14.01,2013-12-27 15:31:00,
2013-12-27 08:41:00,25.0,11.9,30.39,WNW,286,0.0,0.0,57,0.00,,---,0.00,VWS V14.01,2013-12-27 15:41:00,
2013-12-27 08:51:00,25.0,11.9,30.39,WNW,286,0.0,0.0,57,0.00,,---,0.00,VWS V14.01,2013-12-27 15:51:00,
2013-12-27 09:01:00,26.1,13.0,30.38,WNW,286,0.0,0.0,57,0.00,,---,0.00,VWS V14.01,2013-12-27 16:01:00,
2013-12-27 09:11:00,27.6,13.6,30.38,WNW,286,0.0,0.0,55,0.00,,---,0.00,VWS V14.01,2013-12-27 16:11:00,
2013-12-27 09:21:00,29.4,14.0,30.36,WNW,286,0.0,0.0,52,0.00,,---,0.00,VWS V14.01,2013-12-27 16:21:00,
2013-12-27 09:31:00,30.8,13.4,30.34,WNW,286,0.0,0.0,48,0.00,,---,0.00,VWS V14.01,2013-12-27 16:31:00,
2013-12-27 09:41:00,31.6,13.2,30.34,WNW,286,0.0,0.0,46,0.00,,---,0.00,VWS V14.01,2013-12-27 16:41:00,
2013-12-27 09:51:00,31.3,13.4,30.34,West,277,0.0,0.0,47,0.00,,---,0.00,VWS V14.01,2013-12-27 16:51:00,
2013-12-27 10:01:00,30.9,14.0,30.35,WSW,251,6.0,7.0,49,0.00,,---,0.00,VWS V14.01,2013-12-27 17:01:00,
2013-12-27 10:11:00,31.6,14.6,30.32,SW,219,6.0,10.0,49,0.00,,---,0.00,VWS V14.01,2013-12-27 17:11:00,
2013-12-27 10:21:00,32.9,14.4,30.32,South,187,3.0,11.0,46,0.00,,---,0.00,VWS V14.01,2013-12-27 17:21:00,
2013-12-27 10:31:00,33.6,15.0,30.30,South,186,5.0,7.0,46,0.00,,---,0.00,VWS V14.01,2013-12-27 17:31:00,
2013-12-27 10:41:00,32.7,15.7,30.32,South,187,3.0,9.0,49,0.00,,---,0.00,VWS V14.01,2013-12-27 17:41:00,
2013-12-27 10:51:00,32.8,15.8,30.31,South,186,3.0,10.0,49,0.00,,---,0.00,VWS V14.01,2013-12-27 17:51:00,
2013-12-27 11:01:00,34.0,16.9,30.29,South,175,6.0,11.0,49,0.00,,---,0.00,VWS V14.01,2013-12-27 18:01:00,
2013-12-27 11:11:00,34.4,18.6,30.32,South,174,3.0,9.0,52,0.00,,---,0.00,VWS V14.01,2013-12-27 18:11:00,
2013-12-27 11:21:00,35.1,19.3,30.30,SSE,167,5.0,9.0,52,0.00,,---,0.00,VWS V14.01,2013-12-27 18:21:00,
2013-12-27 11:31:00,34.9,18.2,30.29,SSE,167,0.0,10.0,50,0.00,,---,0.00,VWS V14.01,2013-12-27 18:31:00,
2013-12-27 11:41:00,35.1,18.8,30.28,SSE,167,6.0,7.0,51,0.00,,---,0.00,VWS V14.01,2013-12-27 18:41:00,
2013-12-27 11:51:00,36.2,18.4,30.28,SSE,167,4.0,9.0,48,0.00,,---,0.00,VWS V14.01,2013-12-27 18:51:00,
2013-12-27 12:01:00,36.7,18.9,30.27,SSE,167,0.0,6.0,48,0.00,,---,0.00,VWS V14.01,2013-12-27 19:01:00,
2013-12-27 12:11:00,37.2,18.3,30.28,SSE,167,0.0,8.0,46,0.00,,---,0.00,VWS V14.01,2013-12-27 19:11:00,
2013-12-27 12:21:00,37.8,18.4,30.28,SSE,167,4.0,7.0,45,0.00,,---,0.00,VWS V14.01,2013-12-27 19:21:00,
2013-12-27 12:31:00,38.2,19.3,30.27,SSE,167,0.0,8.0,46,0.00,,---,0.00,VWS V14.01,2013-12-27 19:31:00,
2013-12-27 12:41:00,38.9,19.4,30.25,SSE,168,2.0,7.0,45,0.00,,---,0.00,VWS V14.01,2013-12-27 19:41:00,
2013-12-27 12:51:00,39.7,19.0,30.24,SSE,168,0.0,7.0,43,0.00,,---,0.00,VWS V14.01,2013-12-27 19:51:00,
2013-12-27 13:01:00,40.0,18.8,30.24,SSE,168,0.0,6.0,42,0.00,,---,0.00,VWS V14.01,2013-12-27 20:01:00,
2013-12-27 13:11:00,40.3,19.0,30.25,SSE,168,0.0,6.0,42,0.00,,---,0.00,VWS V14.01,2013-12-27 20:11:00,
2013-12-27 13:21:00,40.7,20.0,30.23,SSE,168,3.0,5.0,43,0.00,,---,0.00,VWS V14.01,2013-12-27 20:21:00,
2013-12-27 13:31:00,41.2,19.9,30.22,SSE,168,0.0,5.0,42,0.00,,---,0.00,VWS V14.01,2013-12-27 20:31:00,
2013-12-27 13:41:00,41.6,19.7,30.22,SSE,168,3.0,7.0,41,0.00,,---,0.00,VWS V14.01,2013-12-27 20:41:00,
2013-12-27 13:51:00,42.0,20.6,30.22,SSE,168,0.0,5.0,42,0.00,,---,0.00,VWS V14.01,2013-12-27 20:51:00,
2013-12-27 14:01:00,42.7,21.2,30.19,SSE,168,0.0,0.0,42,0.00,,---,0.00,VWS V14.01,2013-12-27 21:01:00,
2013-12-27 14:11:00,43.0,21.5,30.17,SSE,168,0.0,1.0,42,0.00,,---,0.00,VWS V14.01,2013-12-27 21:11:00,
2013-12-27 14:21:00,42.4,21.0,30.19,SSE,168,3.0,7.0,42,0.00,,---,0.00,VWS V14.01,2013-12-27 21:21:00,
2013-12-27 14:31:00,42.5,19.9,30.17,SSE,168,5.0,8.0,40,0.00,,---,0.00,VWS V14.01,2013-12-27 21:31:00,
2013-12-27 14:41:00,42.9,20.3,30.17,SSE,168,0.0,6.0,40,0.00,,---,0.00,VWS V14.01,2013-12-27 21:41:00,
2013-12-27 14:51:00,43.3,19.4,30.17,SSE,168,0.0,4.0,38,0.00,,---,0.00,VWS V14.01,2013-12-27 21:51:00,
2013-12-27 15:01:00,43.7,20.4,30.17,SSE,168,0.0,4.0,39,0.00,,---,0.00,VWS V14.01,2013-12-27 22:01:00,
2013-12-27 15:11:00,43.8,19.2,30.15,SSE,168,0.0,5.0,37,0.00,,---,0.00,VWS V14.01,2013-12-27 22:11:00,
2013-12-27 15:21:00,44.3,20.9,30.14,SSE,168,0.0,0.0,39,0.00,,---,0.00,VWS V14.01,2013-12-27 22:21:00,
2013-12-27 15:31:00,44.9,20.2,30.14,SSE,168,0.0,0.0,37,0.00,,---,0.00,VWS V14.01,2013-12-27 22:31:00,
2013-12-27 15:41:00,45.0,20.3,30.14,SSE,168,0.0,0.0,37,0.00,,---,0.00,VWS V14.01,2013-12-27 22:41:00,
2013-12-27 15:51:00,45.0,20.3,30.14,SSE,168,0.0,0.0,37,0.00,,---,0.00,VWS V14.01,2013-12-27 22:51:00,
2013-12-27 16:01:00,44.7,21.3,30.14,SSE,168,3.0,3.0,39,0.00,,---,0.00,VWS V14.01,2013-12-27 23:01:00,
2013-12-27 16:11:00,41.1,20.3,30.17,SSE,168,5.0,5.0,43,0.00,,---,0.00,VWS V14.01,2013-12-27 23:11:00,
2013-12-27 16:21:00,36.2,20.3,30.23,South,179,5.0,6.0,52,0.00,,---,0.00,VWS V14.01,2013-12-27 23:21:00,
2013-12-27 16:31:00,35.0,20.0,30.25,South,180,3.0,5.0,54,0.00,,---,0.00,VWS V14.01,2013-12-27 23:31:00,
2013-12-27 16:41:00,34.1,20.5,30.24,South,182,5.0,5.0,57,0.00,,---,0.00,VWS V14.01,2013-12-27 23:41:00,
2013-12-27 16:51:00,33.6,20.4,30.24,South,184,0.0,5.0,58,0.00,,---,0.00,VWS V14.01,2013-12-27 23:51:00,
2013-12-27 17:01:00,33.0,20.6,30.25,South,184,0.0,0.0,60,0.00,,---,0.00,VWS V14.01,2013-12-28 00:01:00,
2013-12-27 17:11:00,33.7,20.1,30.26,South,184,0.0,0.0,57,0.00,,---,0.00,VWS V14.01,2013-12-28 00:11:00,
2013-12-27 17:21:00,34.6,19.7,30.24,South,184,0.0,0.0,54,0.00,,---,0.00,VWS V14.01,2013-12-28 00:21:00,
2013-12-27 17:31:00,33.8,19.4,30.24,South,184,0.0,0.0,55,0.00,,---,0.00,VWS V14.01,2013-12-28 00:31:00,
2013-12-27 17:41:00,32.7,19.6,30.26,South,184,0.0,0.0,58,0.00,,---,0.00,VWS V14.01,2013-12-28 00:41:00,
2013-12-27 17:51:00,30.6,19.1,30.28,South,184,0.0,0.0,62,0.00,,---,0.00,VWS V14.01,2013-12-28 00:51:00,
2013-12-27 18:01:00,29.4,19.1,30.28,South,184,0.0,0.0,65,0.00,,---,0.00,VWS V14.01,2013-12-28 01:01:00,
2013-12-27 18:11:00,29.4,18.7,30.30,South,183,0.0,0.0,64,0.00,,---,0.00,VWS V14.01,2013-12-28 01:11:00,
2013-12-27 18:21:00,29.6,18.6,30.28,South,183,0.0,0.0,63,0.00,,---,0.00,VWS V14.01,2013-12-28 01:21:00,
2013-12-27 18:31:00,30.5,18.3,30.29,South,184,0.0,0.0,60,0.00,,---,0.00,VWS V14.01,2013-12-28 01:31:00,
2013-12-27 18:41:00,30.9,18.3,30.29,South,184,0.0,0.0,59,0.00,,---,0.00,VWS V14.01,2013-12-28 01:41:00,
2013-12-27 18:51:00,30.3,18.1,30.29,South,183,0.0,0.0,60,0.00,,---,0.00,VWS V14.01,2013-12-28 01:51:00,
2013-12-27 19:01:00,27.9,17.7,30.31,South,183,0.0,0.0,65,0.00,,---,0.00,VWS V14.01,2013-12-28 02:01:00,
2013-12-27 19:11:00,27.9,17.7,30.31,South,184,3.0,5.0,65,0.00,,---,0.00,VWS V14.01,2013-12-28 02:11:00,
2013-12-27 19:21:00,29.4,18.4,30.28,South,184,0.0,4.0,63,0.00,,---,0.00,VWS V14.01,2013-12-28 02:21:00,
2013-12-27 19:31:00,28.3,17.7,30.31,South,183,0.0,0.0,64,0.00,,---,0.00,VWS V14.01,2013-12-28 02:31:00,
2013-12-27 19:41:00,28.3,17.7,30.30,South,184,0.0,0.0,64,0.00,,---,0.00,VWS V14.01,2013-12-28 02:41:00,
2013-12-27 19:51:00,27.2,17.0,30.29,South,183,0.0,0.0,65,0.00,,---,0.00,VWS V14.01,2013-12-28 02:51:00,
2013-12-27 20:01:00,26.8,17.0,30.29,South,183,0.0,0.0,66,0.00,,---,0.00,VWS V14.01,2013-12-28 03:01:00,
2013-12-27 20:11:00,27.5,17.6,30.25,South,184,0.0,0.0,66,0.00,,---,0.00,VWS V14.01,2013-12-28 03:11:00,
2013-12-27 20:21:00,28.7,18.1,30.23,South,184,0.0,0.0,64,0.00,,---,0.00,VWS V14.01,2013-12-28 03:21:00,
2013-12-27 20:31:00,26.1,16.3,30.25,South,183,0.0,0.0,66,0.00,,---,0.00,VWS V14.01,2013-12-28 03:31:00,
2013-12-27 20:41:00,26.4,16.9,30.25,South,184,0.0,0.0,67,0.00,,---,0.00,VWS V14.01,2013-12-28 03:41:00,
2013-12-27 20:51:00,26.5,16.3,30.25,South,184,0.0,0.0,65,0.00,,---,0.00,VWS V14.01,2013-12-28 03:51:00,
2013-12-27 21:01:00,27.5,16.9,30.24,South,183,0.0,0.0,64,0.00,,---,0.00,VWS V14.01,2013-12-28 04:01:00,
2013-12-27 21:11:00,26.5,16.7,30.20,South,183,0.0,0.0,66,0.00,,---,0.00,VWS V14.01,2013-12-28 04:11:00,
2013-12-27 21:21:00,27.3,16.4,30.19,South,184,0.0,0.0,63,0.00,,---,0.00,VWS V14.01,2013-12-28 04:21:00,
2013-12-27 21:31:00,26.2,16.4,30.20,South,183,0.0,0.0,66,0.00,,---,0.00,VWS V14.01,2013-12-28 04:31:00,
2013-12-27 21:41:00,25.2,15.4,30.21,South,183,0.0,0.0,66,0.00,,---,0.00,VWS V14.01,2013-12-28 04:41:00,
2013-12-27 21:51:00,25.2,15.8,30.20,South,184,0.0,0.0,67,0.00,,---,0.00,VWS V14.01,2013-12-28 04:51:00,
2013-12-27 22:01:00,24.7,15.0,30.20,South,184,0.0,3.0,66,0.00,,---,0.00,VWS V14.01,2013-12-28 05:01:00,
2013-12-27 22:11:00,25.4,15.3,30.16,South,184,0.0,4.0,65,0.00,,---,0.00,VWS V14.01,2013-12-28 05:11:00,
2013-12-27 22:21:00,24.3,15.9,30.17,South,183,2.0,2.0,70,0.00,,---,0.00,VWS V14.01,2013-12-28 05:21:00,
2013-12-27 22:31:00,24.8,15.8,30.17,South,183,0.0,4.0,68,0.00,,---,0.00,VWS V14.01,2013-12-28 05:31:00,
2013-12-27 22:41:00,23.9,14.9,30.17,South,184,0.0,0.0,68,0.00,,---,0.00,VWS V14.01,2013-12-28 05:41:00,
2013-12-27 22:51:00,24.4,15.7,30.17,South,184,0.0,0.0,69,0.00,,---,0.00,VWS V14.01,2013-12-28 05:51:00,
2013-12-27 23:01:00,23.2,14.6,30.18,South,184,0.0,0.0,69,0.00,,---,0.00,VWS V14.01,2013-12-28 06:01:00,
2013-12-27 23:11:00,22.1,14.1,30.15,South,183,0.0,0.0,71,0.00,,---,0.00,VWS V14.01,2013-12-28 06:11:00,
2013-12-27 23:21:00,22.7,15.1,30.14,South,184,2.0,3.0,72,0.00,,---,0.00,VWS V14.01,2013-12-28 06:21:00,
2013-12-27 23:33:00,23.1,14.8,30.14,South,184,0.0,2.0,70,0.00,,---,0.00,VWS V14.01,2013-12-28 06:33:00,
2013-12-27 23:41:00,22.6,14.3,30.13,South,184,0.0,0.0,70,0.00,,---,0.00,VWS V14.01,2013-12-28 06:41:00,
2013-12-27 23:51:00,24.0,15.3,30.13,South,183,0.0,0.0,69,0.00,,---,0.00,VWS V14.01,2013-12-28 06:51:00,